Location: Bjelajci
(45.0103°N, 16.1758°E)
Time: 04:29:45
(UTC+00:00)

Cosmos 614 Rocket - Pass Details

Date: 14 July 2020
Orbit: 732 x 764 km, 74.1° (Epoch: 11 August)

Event Time Altitude Azimuth Distance (km) Brightness Sun altitude
Exits shadow 00:43:21 38° 224° (SW) 1,119 4.4 -19.4°
Maximum altitude 00:45:13 66° 293° (WNW) 807 4.0 -19.3°
Drops below altitude 10° 00:50:19 10° 16° (NNE) 2,269 7.6 -18.9°
Sets 00:52:43 0° 19° (NNE) 3,202 8.8 -18.7°
